Airfield :
LOGIN :

Register | Disclaimer

   EN    FR    IT 

 










Legend :    VFR   Marginal VFR   IFR   Intensive IFR   Very Intensive IFR
Visi :
Ceiling :
>= 8 km
>= 3000ft
5 to 8 km
1000 to 3000 ft
1500m to 5 km
500 to 1000 ft
800 to 1500m
200 to 500 ft
< 800m
< 200 ft
Symbols :   Thunderstorms  Fog  Heavy snow  Heavy precipitations  Wind > 20 kt
SIGMETs :     Misc.  Thunderstorms  Icing  Turbulence  Mountain Waves  Volcanic Ashes






- Airport Elevation : 274 ft
- IATA code : PUY


LDPL - Pula

CURRENT METAR :
  • 250130Z 03007KT CAVOK 14/05 Q1027

EXPIRED METARs :
  • 250100Z 03007KT CAVOK 14/05 Q1027
  • 250030Z 04008KT CAVOK 15/06 Q1027
  • 250000Z 03008KT CAVOK 15/06 Q1027
  • 242330Z 04006KT CAVOK 14/06 Q1027
  • 242300Z 04006KT CAVOK 14/06 Q1027

TAF TAF LDPL
Valid from the 25 at 00:00 until the 26 at 00:00 UTC


242325Z 2500/2600 09010KT CAVOK TX24/2513Z TN13/2504Z
BECMG 2509/2511 27010KT
BECMG 2516/2518 34006KT
BECMG 2520/2522 06012KT



MET'MAP, your aeronautical weather chart ! - Copyright ORBIFLY December 2007 - Disclaimer

ORBIFLY MET'MAP TEAM :

Programming & Development : Alexandra Zaïnal
Concept & original design : Baudouin d'Aumeries
Assistance for programming : Marc-Olivier Méhu
Technical & hardware support : Manuel Goepfert

Contact : metmap@orbifly.com




SOURCES & CREDITS :

   NOAA